Weather History for KMSO - March, 2014

Change the Weather History Date:

Sunday, March 2, 2014

  Actual Average Record
Temperature  
Mean Temperature 11 °F 34 °F  
Max Temperature 16 °F 44 °F 66 °F (1994)
Min Temperature 5 °F 24 °F -8 °F (1960)
Degree Days  
Heating Degree Days 54 31  
Month to date heating degree days 116 62  
Since 1 July heating degree days 5626 5431  
Cooling Degree Days 0 0  
Month to date cooling degree days 0 0  
Year to date cooling degree days 0 0  
Moisture  
Dew Point 5 °F    
Average Humidity 76    
Maximum Humidity 92    
Minimum Humidity 60    
Precipitation  
Precipitation 0.19 in 0.03 in 0.29 in (1934)
Month to date precipitation 0.20 0.06  
Year to date precipitation 3.51 1.61  
Snow  
Snow 2.00 in - - ()
Month to date snowfall 3.0  
Year to date snowfall 44.3  
Since 1 July snowfall 58.2  
Snow Depth 14.00 in    
Sea Level Pressure  
Sea Level Pressure 30.00 in    
Wind  
Wind Speed 5 mph (NW)    
Max Wind Speed 24 mph    
Max Gust Speed 29 mph    
Visibility 4 miles    
Events Snow    
T = Trace of Precipitation, MM = Missing Value Source: NWS Daily Summary

Daily Weather History Graph

Daily Weather History Graph

Search for Another Location

Airport or City:

Trip Planner

Search our weather history database for the weather conditions in past years. The results will help you decide how hot, cold, wet, or windy it might be!

Date:

Astronomy

Mar. 02, 2014 Rise Set
Actual Time 7:14 AM MST 6:23 PM MST
Civil Twilight 6:43 AM MST 6:54 PM MST
Nautical Twilight 6:08 AM MST 7:29 PM MST
Astronomical Twilight 5:33 AM MST 8:04 PM MST
Moon 7:39 AM MST (3/2) 8:34 PM MST (3/2)
Length of Visible Light 12h 10m
Length of Day
11h 09m
Waxing Crescent, 3% of the Moon is Illuminated
Mar 2
Waxing Crescent
Mar 8
First Quarter
Mar 16
Full
Mar 23
Last Quarter
Mar 30
New

Hourly Weather History & Observations

Time (MST) Temp. Windchill Dew Point Humidity Pressure Visibility Wind Dir Wind Speed Gust Speed Precip Events Conditions
12:53 AM 5.0 °F -16.7 °F -6.0 °F 61% 30.20 in 10.0 mi ESE 23.0 mph 27.6 mph N/A   Overcast
1:53 AM 5.0 °F -16.2 °F -5.1 °F 63% 30.20 in 10.0 mi ESE 21.9 mph 29.9 mph N/A   Overcast
2:53 AM 5.0 °F -14.2 °F -6.0 °F 61% 30.21 in 10.0 mi ESE 17.3 mph - N/A   Overcast
3:53 AM 5.0 °F -13.0 °F -6.0 °F 61% 30.20 in 10.0 mi ESE 15.0 mph - N/A   Overcast
4:53 AM 6.1 °F -9.5 °F -5.1 °F 60% 30.20 in 10.0 mi East 11.5 mph - N/A   Overcast
5:53 AM 6.1 °F -6.8 °F -5.1 °F 60% 30.20 in 10.0 mi East 8.1 mph - N/A   Overcast
6:53 AM 7.0 °F 0.1 °F -5.1 °F 58% 30.20 in 10.0 mi SE 3.5 mph - N/A   Overcast
7:24 AM 7.0 °F 0.1 °F -4.0 °F 61% 30.00 in 10.0 mi SSE 3.5 mph - N/A   Overcast
7:53 AM 7.0 °F - -4.0 °F 61% 30.21 in 10.0 mi Calm Calm - N/A   Overcast
8:08 AM 7.0 °F - -2.9 °F 64% 30.00 in 2.5 mi Calm Calm - 0.00 in Snow Light Snow
8:23 AM 7.0 °F - -2.9 °F 64% 30.00 in 6.0 mi Calm Calm - 0.01 in Snow Light Snow
8:53 AM 7.0 °F - -2.9 °F 64% 30.21 in 10.0 mi Calm Calm - 0.01 in   Overcast
9:53 AM 8.1 °F - -2.0 °F 64% 30.20 in 10.0 mi Calm Calm - N/A   Overcast
10:53 AM 9.0 °F 2.4 °F -0.0 °F 67% 30.18 in 8.0 mi WNW 3.5 mph - 0.00 in Snow Light Snow
11:10 AM 10.0 °F 3.6 °F 1.0 °F 67% 29.98 in 2.5 mi West 3.5 mph - 0.00 in Snow Light Snow
11:16 AM 10.0 °F 3.6 °F 1.0 °F 67% 29.98 in 1.8 mi West 3.5 mph - 0.00 in Snow Light Snow
11:21 AM 9.0 °F 2.4 °F 1.0 °F 70% 29.98 in 1.2 mi WNW 3.5 mph - 0.00 in Snow Light Snow
11:36 AM 10.0 °F 3.6 °F 3.0 °F 73% 29.98 in 2.0 mi WNW 3.5 mph - 0.00 in Snow Light Snow
11:46 AM 10.0 °F 3.6 °F 3.0 °F 73% 29.97 in 5.0 mi WNW 3.5 mph - 0.00 in Snow Light Snow
11:53 AM 10.0 °F 3.6 °F 3.0 °F 73% 30.16 in 7.0 mi WNW 3.5 mph - 0.01 in Snow Light Snow
12:29 PM 12.0 °F 5.9 °F 3.9 °F 70% 29.96 in 2.0 mi North 3.5 mph - 0.00 in Snow Light Snow
12:32 PM 12.0 °F 5.9 °F 3.9 °F 70% 29.96 in 1.2 mi North 3.5 mph - 0.00 in Snow Light Snow
12:36 PM 12.0 °F - 3.9 °F 70% 29.96 in 0.8 mi Calm Calm - 0.00 in Snow Light Snow
12:44 PM 12.9 °F - 5.0 °F 71% 29.95 in 1.2 mi Calm Calm - 0.00 in Snow Light Snow
12:50 PM 12.2 °F - 5.0 °F 73% 29.95 in 2.0 mi Calm Calm - 0.00 in Snow Light Snow
12:53 PM 12.0 °F 5.9 °F 5.0 °F 73% 30.13 in 3.0 mi WNW 3.5 mph - 0.00 in Snow Light Snow
1:04 PM 10.9 °F 4.7 °F 5.0 °F 77% 29.94 in 2.5 mi WNW 3.5 mph - 0.00 in Snow Light Snow
1:30 PM 12.0 °F 5.9 °F 6.1 °F 77% 29.93 in 3.0 mi WNW 3.5 mph - 0.01 in Snow Light Snow
1:36 PM 12.0 °F 4.1 °F 6.1 °F 77% 29.93 in 1.8 mi WNW 4.6 mph - 0.01 in Snow Light Snow
1:53 PM 12.0 °F 4.1 °F 7.0 °F 80% 30.10 in 1.5 mi WNW 4.6 mph - 0.01 in Snow Light Snow
2:11 PM 12.9 °F 6.9 °F 7.0 °F 77% 29.91 in 1.0 mi NW 3.5 mph - 0.00 in Snow Light Snow
2:19 PM 12.9 °F 5.2 °F 7.0 °F 77% 29.91 in 0.8 mi NNW 4.6 mph - 0.01 in Snow Light Snow
2:31 PM 12.9 °F 5.2 °F 8.1 °F 81% 29.91 in 1.0 mi NW 4.6 mph - 0.01 in Snow Light Snow
2:51 PM 12.2 °F 6.1 °F 8.6 °F 85% 29.90 in 2.0 mi NW 3.5 mph - 0.02 in Snow Light Snow
2:53 PM 12.9 °F 6.9 °F 9.0 °F 84% 30.09 in 2.0 mi NW 3.5 mph - 0.02 in Snow Light Snow
2:56 PM 12.9 °F - 9.0 °F 84% 29.90 in 1.0 mi Calm Calm - 0.00 in Snow Light Snow
3:24 PM 12.9 °F - 10.0 °F 88% 29.90 in 1.0 mi Calm Calm - 0.01 in Snow Light Snow
3:38 PM 12.9 °F - 10.0 °F 88% 29.90 in 1.2 mi Calm Calm - 0.02 in Snow Light Snow
3:44 PM 12.9 °F - 10.0 °F 88% 29.90 in 1.5 mi Calm Calm - 0.02 in Snow Light Snow
3:53 PM 12.9 °F - 10.0 °F 88% 30.08 in 1.5 mi Calm Calm - 0.02 in Snow Light Snow
4:04 PM 12.9 °F - 10.0 °F 88% 29.89 in 1.2 mi Calm Calm - 0.00 in Snow Light Snow
4:16 PM 14.0 °F - 10.0 °F 84% 29.89 in 1.0 mi Calm Calm - 0.01 in Snow Light Snow
4:35 PM 12.9 °F - 10.0 °F 88% 29.88 in 1.2 mi Calm Calm - 0.01 in Snow Light Snow
4:49 PM 12.2 °F - 10.4 °F 92% 29.87 in 1.2 mi Calm Calm - 0.02 in Snow Light Snow
4:53 PM 12.9 °F - 10.0 °F 88% 30.05 in 1.2 mi Calm Calm - 0.02 in Snow Light Snow
5:08 PM 12.9 °F - 10.0 °F 88% 29.87 in 1.0 mi Calm Calm - 0.00 in Snow Light Snow
5:14 PM 12.9 °F - 10.0 °F 88% 29.87 in 1.2 mi Calm Calm - 0.01 in Snow Light Snow
5:35 PM 14.0 °F - 10.0 °F 84% 29.87 in 2.5 mi Calm Calm - 0.01 in Snow Light Snow
5:50 PM 14.0 °F 8.2 °F 10.4 °F 86% 29.86 in 1.2 mi ESE 3.5 mph - 0.01 in Snow Light Snow
5:53 PM 14.0 °F 6.5 °F 10.0 °F 84% 30.04 in 1.0 mi ESE 4.6 mph - 0.01 in Snow Light Snow
6:53 PM 14.0 °F - 10.9 °F 88% 30.02 in 1.8 mi Calm Calm - 0.02 in Snow Light Snow
7:02 PM 15.1 °F - 10.9 °F 84% 29.85 in 2.0 mi Calm Calm - 0.01 in Snow Light Snow
7:53 PM 15.1 °F - 12.0 °F 88% 30.03 in 2.0 mi Calm Calm - 0.03 in Snow Light Snow
8:02 PM 15.1 °F - 12.0 °F 88% 29.85 in 3.0 mi Calm Calm - 0.01 in Snow Light Snow
8:53 PM 15.1 °F - 12.0 °F 88% 30.02 in 10.0 mi Calm Calm - 0.01 in   Overcast
9:20 PM 15.1 °F - 12.0 °F 88% 29.85 in 4.0 mi Calm Calm - 0.00 in Snow Light Snow
9:53 PM 15.1 °F - 12.0 °F 88% 30.02 in 10.0 mi Calm Calm - 0.00 in   Overcast
10:17 PM 16.0 °F - 12.0 °F 84% 29.85 in 1.8 mi Calm Calm - 0.00 in Snow Light Snow
10:29 PM 15.1 °F 9.4 °F 12.0 °F 88% 29.86 in 3.0 mi West 3.5 mph - 0.01 in Snow Light Snow
10:42 PM 15.1 °F 9.4 °F 12.9 °F 91% 29.85 in 1.8 mi WNW 3.5 mph - 0.01 in Snow Light Snow
10:53 PM 15.1 °F 9.4 °F 12.0 °F 88% 30.02 in 3.0 mi West 3.5 mph - 0.02 in Snow Light Snow
11:53 PM 16.0 °F - 12.9 °F 88% 30.03 in 10.0 mi Calm Calm - 0.01 in   Overcast